Regional Weather Roundup
Issued by NWS

Home | Current Version | Previous Version | Graphics & Text | Print | Product List | Glossary Off
Versions: 1 2 3 4 5 6 7 8 9 10 11 12 13 14 15 16 17 18 19 20 21 22 23 24 25 26 27 28 29 30 31 32 33 34 35 36 37 38 39 40 41 42 43 44 45 46 47 48 49 50

000
ASUS43 KFSD 281202
RWRSD

WEATHER ROUNDUP FOR SOUTH DAKOTA
NATIONAL WEATHER SERVICE SIOUX FALLS SD
700 AM CDT THU AUG 28 2014

NOTE: "FAIR" INDICATES FEW OR NO CLOUDS BELOW 12,000 FEET WITH NO
SIGNIFICANT WEATHER AND/OR OBSTRUCTIONS TO VISIBILITY.


SDZ001>005-009-010-012>017-281300-
NORTHWEST AND NORTH CENTRAL SOUTH DAKOTA

CITY           SKY/WX    TMP DP  RH WIND       PRES   REMARKS
BUFFALO          N/A     53  53 100 S3        29.93S
FAITH            N/A     62  62 100 CALM      29.97R
MOBRIDGE       RAIN      66  66 100 SE6       29.92F
$$

SDZ012>016-024>037-041>051-057-063-072>074-281300-
SOUTHWEST AND SOUTH CENTRAL SOUTH DAKOTA

CITY           SKY/WX    TMP DP  RH WIND       PRES   REMARKS
RAPID CTY ARPT CLOUDY    61  59  93 NW5       30.00F
PIERRE         CLOUDY    66  66 100 E5        29.92S
CUSTER         CLOUDY    56  51  84 N3        30.10S
ELLSWORTH AFB  CLOUDY    61  60  95 NW2       30.00F
PHILIP         CLOUDY    65  63  93 NE6       29.93F
PINE RIDGE     CLOUDY    63  63 100 NW6       29.98R FOG
WINNER         CLOUDY    68  67  96 SE9       29.90F
$$

SDZ004>011-016>023-039-040-281300-
NORTHEAST SOUTH DAKOTA

CITY           SKY/WX    TMP DP  RH WIND       PRES   REMARKS
ABERDEEN       CLOUDY    65  65 100 SE5       29.96S
WATERTOWN      CLOUDY    65  63  93 SE8       29.98F
SISSETON         N/A     63  62  97 S3        29.98F
$$

SDZ017-020-022-023-036>040-048>070-281300-
SOUTHEAST SOUTH DAKOTA

CITY           SKY/WX    TMP DP  RH WIND       PRES   REMARKS
SIOUX FALLS    LGT RAIN  67  66  97 E8        29.97F FOG
HURON          CLOUDY    67  66  97 E6        29.94F
CHAMBERLAIN    CLOUDY    66  66  99 E7        29.92S
MITCHELL       RAIN      68  67  96 SE9       29.93F FOG
YANKTON        CLOUDY    68  66  94 SE13      29.93F
$$

ABBREVIATIONS USED IN REMARKS
   TC - TEMPERATURE IN CELSIUS
  WCI - WIND CHILL INDEX
   HX - HEAT INDEX
  VSB - VISIBILITY




USA.gov is the U.S. government's official web portal to all federal, state and local government web resources and services.